TimeEST,TemperatureF,Dew PointF,Humidity,Sea Level PressureIn,VisibilityMPH,Wind Direction,Wind SpeedMPH,Gust SpeedMPH,PrecipitationIn,Events,Conditions,WindDirDegrees,DateUTC
12:52 AM,46.0,26.1,46,30.37,10.0,ENE,12.7,-,N/A,,Clear,60,2012-11-18 05:52:00
1:52 AM,46.0,25.0,44,30.37,10.0,ENE,15.0,-,N/A,,Clear,60,2012-11-18 06:52:00
2:52 AM,46.0,25.0,44,30.36,10.0,ENE,12.7,-,N/A,,Clear,60,2012-11-18 07:52:00
3:52 AM,45.0,26.1,48,30.35,10.0,ENE,10.4,-,N/A,,Clear,60,2012-11-18 08:52:00
4:52 AM,44.1,25.0,47,30.35,10.0,NE,11.5,-,N/A,,Clear,50,2012-11-18 09:52:00
5:52 AM,44.1,27.0,51,30.36,10.0,NE,11.5,-,N/A,,Clear,50,2012-11-18 10:52:00
6:38 AM,44.6,28.4,53,30.36,10.0,ENE,9.2,-,N/A,,Mostly Cloudy,60,2012-11-18 11:38:00
6:52 AM,46.0,28.9,51,30.38,10.0,NE,11.5,-,N/A,,Mostly Cloudy,50,2012-11-18 11:52:00
7:52 AM,46.9,30.9,54,30.40,10.0,NE,13.8,-,N/A,,Mostly Cloudy,50,2012-11-18 12:52:00
8:17 AM,46.4,30.2,53,30.38,10.0,ENE,15.0,-,N/A,,Mostly Cloudy,60,2012-11-18 13:17:00
8:33 AM,48.2,32.0,54,30.38,10.0,ENE,13.8,-,N/A,,Overcast,60,2012-11-18 13:33:00
8:52 AM,48.0,33.1,56,30.39,10.0,ENE,16.1,25.3,N/A,,Overcast,60,2012-11-18 13:52:00
9:29 AM,51.8,37.4,58,30.38,10.0,ENE,12.7,-,N/A,,Mostly Cloudy,60,2012-11-18 14:29:00
9:52 AM,52.0,37.0,57,30.39,10.0,ENE,13.8,-,N/A,,Scattered Clouds,60,2012-11-18 14:52:00
10:52 AM,55.0,39.0,55,30.39,10.0,ENE,11.5,19.6,N/A,,Mostly Cloudy,70,2012-11-18 15:52:00
11:52 AM,57.9,39.9,51,30.37,10.0,East,9.2,-,N/A,,Mostly Cloudy,80,2012-11-18 16:52:00
12:52 PM,61.0,43.0,52,30.33,10.0,ENE,11.5,18.4,N/A,,Partly Cloudy,60,2012-11-18 17:52:00
1:52 PM,63.0,43.0,48,30.30,10.0,ENE,10.4,-,N/A,,Partly Cloudy,60,2012-11-18 18:52:00
2:52 PM,64.0,43.0,46,30.30,10.0,ENE,11.5,17.3,N/A,,Partly Cloudy,70,2012-11-18 19:52:00
3:52 PM,64.0,43.0,46,30.30,10.0,ENE,9.2,-,N/A,,Partly Cloudy,60,2012-11-18 20:52:00
4:52 PM,61.0,44.1,54,30.31,10.0,ENE,10.4,-,N/A,,Partly Cloudy,70,2012-11-18 21:52:00
5:52 PM,60.1,46.0,60,30.32,10.0,East,12.7,-,N/A,,Mostly Cloudy,80,2012-11-18 22:52:00
6:52 PM,57.0,45.0,64,30.32,10.0,East,9.2,-,N/A,,Mostly Cloudy,80,2012-11-18 23:52:00
7:52 PM,57.0,44.1,62,30.32,10.0,ENE,11.5,-,N/A,,Partly Cloudy,70,2012-11-19 00:52:00
8:52 PM,55.9,43.0,62,30.33,10.0,ENE,10.4,-,N/A,,Partly Cloudy,60,2012-11-19 01:52:00
9:52 PM,52.0,43.0,71,30.34,10.0,ENE,8.1,-,N/A,,Partly Cloudy,70,2012-11-19 02:52:00
10:52 PM,52.0,42.1,69,30.32,10.0,ENE,8.1,-,N/A,,Clear,70,2012-11-19 03:52:00
11:52 PM,50.0,41.0,71,30.32,10.0,NE,4.6,-,N/A,,Clear,40,2012-11-19 04:52:00